Location: Babice
(50.3480°N, 22.9363°E)
Time: 01:44:42
(UTC+00:00)

Lacrosse 5 - Pass Details

Date: 14 July 2020
Orbit: 717 x 720 km, 57.0° (Epoch: 04 August)

Event Time Altitude Azimuth Distance (km) Brightness Sun altitude
Exits shadow 00:10:41 - 255° (WSW) 2,287 4.1 -14.9°
Reaches altitude 10° 00:10:54 10° 256° (WSW) 2,201 4.0 -14.9°
Maximum altitude 00:15:55 60° 336° (NNW) 822 2.3 -14.6°
Drops below altitude 10° 00:20:57 10° 57° (ENE) 2,209 5.3 -14.2°
Sets 00:23:23 0° 61° (ENE) 3,132 6.1 -14.1°
